This demonstration page uses our WeatherBlox Daily Observations layout. Learn more.

36.19886, -115.1175

Hourly Observations for September 23, 2019

Temp ( °F °C ) Dew Point ( °F °C ) Humidity (%) Winds ( mph kmh ) Pressure ( in mb ) Visibility ( mi km ) Precip ( " mm )
12:53 am 00:53 Clear 72 22.2 29 -1.7 20 20 Calm 29.85 1011 10 16.09344 0 0
1:53 am 01:53 Clear 69 20.6 29 -1.7 22 22 N 3 6 29.85 1011 10 16.09344 0 0
2:53 am 02:53 Clear 69 20.6 28 -2.2 22 22 Calm 29.85 1011 10 16.09344 0 0
3:53 am 03:53 Clear 68 20 27 -2.8 21 21 NNE 3 6 29.85 1011 10 16.09344 0 0
4:53 am 04:53 Clear 66 18.9 26 -3.3 22 22 NW 3 6 29.88 1012 10 16.09344 0 0
5:53 am 05:53 Clear 70 21.1 27 -2.8 20 20 S 9 15 29.88 1012 10 16.09344 0 0
6:53 am 06:53 Sunny 71 21.7 28 -2.2 20 20 Calm 29.88 1012 10 16.09344 0 0
7:53 am 07:53 Sunny 73 22.8 26 -3.3 17 17 ENE 5 7 29.91 1013 10 16.09344 0 0
8:53 am 08:53 Sunny 75 23.9 27 -2.8 17 17 Calm 29.94 1014 10 16.09344 0 0
9:53 am 09:53 Sunny 78 25.6 30 -1.1 17 17 E 6 9 29.94 1014 10 16.09344 0 0
10:53 am 10:53 Sunny 80 26.7 34 1.1 19 19 E 7 11 29.91 1013 10 16.09344 0 0
11:53 am 11:53 Sunny 83 28.3 37 2.8 19 19 E 8 13 29.91 1013 10 16.09344 0 0
12:53 pm 12:53 Sunny 86 30 43 6.1 22 22 E 8 13 29.88 1012 10 16.09344 0 0
1:53 pm 13:53 Sunny 86 30 43 6.1 22 22 W 5 7 29.85 1011 10 16.09344 0 0
2:53 pm 14:53 Sunny 88 31.1 42 5.6 20 20 VRB 3 6 29.85 1011 10 16.09344 0 0
3:53 pm 15:53 Sunny 88 31.1 41 5 19 19 ESE 13 20 29.85 1011 10 16.09344 0 0
4:27 pm 16:27 Mostly Cloudy 85 29.4 44 6.7 24 24 SSE 17 28 29.74 1007 10 16.09344 0 0
4:53 pm 16:53 Partly Cloudy 84 28.9 45 7.2 25 25 WNW 12 19 29.88 1012 10 16.09344 0 0
5:53 pm 17:53 Cloudy with Rain 71 21.7 51 10.6 49 49 N 22 35 29.91 1013 4 6.437376 0.11 2.794
6:53 pm 18:53 Partly Cloudy 76 24.4 47 8.3 36 36 W 21 33 29.91 1013 10 16.09344 0.001 0.001
7:53 pm 19:53 Clear 77 25 44 6.7 31 31 WSW 8 13 29.94 1014 10 16.09344 0 0
8:53 pm 20:53 Clear 73 22.8 49 9.4 43 43 E 12 19 29.97 1015 10 16.09344 0 0
9:53 pm 21:53 Clear 73 22.8 51 10.6 46 46 VRB 3 6 29.97 1015 10 16.09344 0 0
10:53 pm 22:53 Clear 69 20.6 52 11.1 55 55 N 7 11 30 1016 10 16.09344 0 0
11:53 pm 23:53 Clear 67 19.4 52 11.1 59 59 N 6 9 30 1016 10 16.09344 0 0

Powered by AerisWeather